GEFSSGP_con_cape1000_234.txt.gz
Probability
0 0 0 0 0 0 0 0 0 0 0 0 0 0 0 0 0 0 3 6 16 29 39 42 55 55 55 52 52 52 45 39 35 29 29 29 32 29 29 26 23 23 16 13 10 13 13 13 13
0 0 0 0 0 0 0 0 0 0 0 0 0 0 0 0 0 3 6 10 16 32 39 42 48 48 48 48 45 45 39 42 39 35 35 35 35 32 32 26 19 16 16 16 13 10 10 10 13
0 0 0 0 0 0 0 0 0 0 0 0 0 0 0 0 0 3 6 13 26 32 39 42 45 45 45 42 42 42 39 35 35 35 32 29 29 29 29 16 13 13 16 13 10 6 6 6 6
0 0 0 0 0 0 0 0 0 0 0 0 0 0 0 0 3 6 10 13 29 32 35 39 45 45 45 45 39 39 39 39 35 35 29 26 26 26 26 26 23 16 13 6 6 6 6 6 6
0 0 0 0 0 0 0 0 0 0 0 0 0 0 0 3 3 6 13 23 29 29 32 39 42 45 45 39 39 39 39 35 32 29 26 26 23 26 26 26 26 19 13 10 6 6 6 6 6
0 0 0 0 0 0 0 0 0 0 0 0 0 0 0 3 6 6 13 29 29 29 32 39 39 39 39 35 35 35 35 35 29 32 29 23 23 23 19 23 19 13 10 6 3 3 3 6 6
0 0 0 0 0 0 0 0 0 0 0 0 0 0 0 3 13 10 19 29 29 29 32 39 39 35 32 32 32 32 32 29 29 26 19 19 16 23 19 19 16 13 13 6 6 3 3 6 3
0 0 0 0 0 0 0 0 0 0 0 0 0 0 0 3 13 13 19 26 26 32 32 32 32 32 32 29 26 26 26 26 23 16 13 13 16 19 10 10 10 10 3 3 6 3 0 0 0
0 0 0 0 0 0 0 0 0 0 0 0 0 0 0 6 10 16 19 26 26 26 26 26 26 26 26 26 19 16 13 10 10 10 6 6 10 3 3 3 3 6 0 0 0 0 0 0 0
0 0 0 0 0 0 0 0 0 0 0 0 0 0 3 16 16 16 16 19 19 16 19 26 26 19 19 16 16 13 13 13 16 10 10 6 6 6 0 0 0 3 0 0 0 0 0 0 0
0 0 0 0 0 0 0 0 0 0 0 0 0 0 6 13 13 13 13 10 13 10 16 19 19 16 19 13 13 13 16 16 16 13 6 6 6 3 0 0 0 0 0 0 0 0 0 0 0
0 0 0 0 0 0 0 0 0 0 0 0 0 0 6 6 10 6 10 10 13 13 13 16 16 16 16 13 13 13 13 13 13 10 6 6 3 3 3 0 0 3 0 0 0 0 0 0 0
0 0 0 0 0 0 0 0 0 0 0 0 0 0 6 6 6 6 6 10 13 13 13 13 13 13 10 10 10 10 13 10 10 10 3 3 3 0 0 0 0 3 3 0 0 0 0 0 0
0 0 0 0 0 0 0 0 0 0 0 0 0 0 3 6 6 6 6 6 13 13 13 13 13 13 10 6 6 6 6 10 10 6 6 3 3 0 0 0 0 0 0 0 0 0 0 0 0
0 0 0 0 0 0 0 0 0 0 0 0 0 0 0 3 6 6 6 6 6 13 13 13 13 13 6 6 6 6 6 6 10 6 6 3 3 3 0 0 0 0 0 0 0 0 0 0 0
0 0 0 0 0 0 0 0 0 0 0 0 0 0 0 0 3 3 3 6 6 10 13 10 10 10 10 6 6 6 6 10 10 10 6 3 3 3 0 0 0 0 0 0 0 0 0 0 0
0 0 0 0 0 0 0 0 0 0 0 0 0 0 0 0 0 3 3 3 3 3 6 10 10 10 10 6 6 6 6 6 10 6 6 3 0 0 0 0 0 0 0 0 0 0 0 0 0
0 0 0 0 0 0 0 0 0 0 0 0 0 0 0 0 0 3 3 3 3 3 3 6 6 10 10 6 6 6 6 6 10 6 6 0 0 0 0 0 0 0 0 0 0 0 0 0 0
0 0 0 0 0 0 0 0 0 0 0 0 0 0 0 0 0 3 3 3 3 3 3 3 3 3 6 6 6 6 6 6 6 6 3 0 0 0 0 0 0 0 0 0 0 0 0 0 0
0 0 0 0 0 0 0 0 0 0 0 0 0 0 0 0 0 3 3 3 3 3 3 3 3 3 0 3 3 3 3 6 6 6 3 0 0 0 0 0 0 0 0 0 0 0 0 0 0
0 0 0 0 0 0 0 0 0 0 0 0 0 0 0 0 3 3 3 3 3 3 3 3 3 3 0 3 3 3 3 0 0 3 3 0 0 0 0 0 0 0 0 0 0 0 0 0 0
0 0 0 0 0 0 0 0 0 0 0 0 0 0 0 0 0 0 3 3 3 3 3 3 3 3 3 0 3 3 3 3 0 0 0 0 0 0 0 0 0 0 0 0 0 0 0 0 0
0 0 0 0 0 0 0 0 0 0 0 0 0 0 0 0 0 0 0 3 3 3 3 3 3 3 3 0 0 3 3 3 3 3 0 0 0 0 0 0 0 0 0 0 0 0 0 0 0
0 0 0 0 0 0 0 0 0 0 0 0 0 0 0 0 0 0 0 3 3 3 3 3 3 3 0 0 0 0 3 3 3 3 0 0 0 0 0 0 0 0 0 0 0 0 0 0 0
0 0 0 0 0 0 0 0 0 0 0 0 0 0 0 0 0 0 0 0 3 3 3 3 3 3 0 0 0 0 0 3 3 3 0 0 0 0 0 0 0 0 0 0 0 0 0 0 0
0 0 0 0 0 0 0 0 0 0 0 0 0 0 0 0 0 0 0 0 0 3 3 3 3 3 0 0 0 0 0 0 0 0 0 0 0 0 0 0 0 0 0 0 0 0 0 0 0
0 0 0 0 0 0 0 0 0 0 0 0 0 0 0 0 0 0 0 0 0 0 0 3 3 3 0 0 0 0 0 0 0 0 0 0 0 0 0 0 0 0 0 0 0 0 0 0 0
0 0 0 0 0 0 0 0 0 0 0 0 0 0 0 0 0 0 0 0 0 0 0 0 0 0 0 0 0 0 0 0 0 0 0 0 0 0 0 0 0 0 0 0 0 0 0 0 0
0 0 0 0 0 0 0 0 0 0 0 0 0 0 0 0 0 0 0 0 0 0 0 0 0 0 0 0 0 0 0 0 0 0 0 0 0 0 0 0 0 0 0 0 0 0 0 0 0
0 0 0 0 0 0 0 0 0 0 0 0 0 0 0 0 0 0 0 0 0 0 0 0 0 0 0 0 0 0 0 0 0 0 0 0 0 0 0 0 0 0 0 0 0 0 0 0 0

GEFSSGP_con_cape1000_240.txt.gz
Probability
0 0 0 0 0 0 0 0 0 0 0 0 0 0 0 0 3 6 10 16 32 42 39 55 58 58 55 52 48 48 42 42 39 35 29 29 29 26 23 23 23 23 19 19 19 19 16 16 16
0 0 0 0 0 0 0 0 0 0 0 0 0 0 0 0 3 3 6 23 39 39 32 48 55 55 55 52 48 42 42 42 32 35 32 32 32 29 26 23 23 19 19 16 16 13 13 10 13
0 0 0 0 0 0 0 0 0 0 0 0 0 0 0 0 3 3 10 29 39 39 39 45 55 52 52 45 42 42 39 35 35 39 35 35 29 29 29 26 23 16 16 10 10 10 6 6 6
0 0 0 0 0 0 0 0 0 0 0 0 0 0 0 3 3 6 10 29 35 39 39 45 52 52 48 48 48 48 39 35 35 32 32 29 29 29 19 13 13 10 13 13 6 6 6 6 6
0 0 0 0 0 0 0 0 0 0 0 0 0 0 3 3 3 6 16 29 32 32 35 42 48 48 48 45 45 39 39 39 32 35 29 29 26 26 26 26 16 13 10 6 6 6 6 6 6
0 0 0 0 0 0 0 0 0 0 0 0 0 0 3 3 3 10 13 29 32 35 35 42 48 45 45 45 39 39 39 39 35 29 29 26 26 26 26 23 19 19 6 6 6 6 6 6 3
0 0 0 0 0 0 0 0 0 0 0 0 0 0 3 3 3 10 16 32 32 35 35 39 42 42 39 39 39 35 35 35 32 29 26 29 26 23 19 19 19 16 10 10 6 6 6 0 0
0 0 0 0 0 0 0 0 0 0 0 0 0 0 0 3 3 13 32 29 32 29 29 26 32 29 29 26 26 26 26 26 29 19 16 16 16 16 16 10 10 13 13 3 3 3 0 3 0
0 0 0 0 0 0 0 0 0 0 0 0 0 0 3 3 6 13 29 29 29 26 29 26 26 26 26 23 19 16 16 16 13 10 6 3 6 3 3 3 3 3 6 3 0 0 0 0 0
0 0 0 0 0 0 0 0 0 0 0 0 0 3 3 6 6 16 26 26 26 26 23 26 23 23 16 13 6 6 10 6 6 6 0 3 3 0 0 0 0 3 0 0 0 0 0 0 0
0 0 0 0 0 0 0 0 0 0 0 0 0 3 3 6 6 19 26 19 23 16 19 23 23 16 13 6 6 6 6 6 3 6 6 0 0 0 0 0 0 0 0 0 0 0 0 0 0
0 0 0 0 0 0 0 0 0 0 0 0 0 0 3 6 6 6 13 13 19 19 16 13 16 13 10 6 6 3 6 6 3 3 3 3 0 0 0 0 0 0 0 0 0 0 0 0 0
0 0 0 0 0 0 0 0 0 0 0 0 0 0 3 6 6 10 10 13 13 13 13 13 16 13 10 10 10 6 3 3 3 3 3 3 3 0 0 0 0 0 0 0 0 0 0 0 0
0 0 0 0 0 0 0 0 0 0 0 0 0 0 0 3 6 10 10 13 13 13 10 10 13 13 10 10 10 6 6 10 10 3 3 3 3 3 0 0 0 0 0 0 0 0 0 0 0
0 0 0 0 0 0 0 0 0 0 0 0 0 0 0 3 6 6 6 10 13 13 10 10 10 13 10 10 6 6 6 10 3 3 3 3 3 3 0 0 0 0 0 0 0 0 0 0 0
0 0 0 0 0 0 0 0 0 0 0 0 0 0 0 0 6 6 6 10 6 6 10 6 10 10 10 10 3 3 3 6 6 6 3 3 3 0 0 0 0 0 0 0 0 0 0 0 0
0 0 0 0 0 0 0 0 0 0 0 0 0 0 0 0 3 6 6 6 6 6 6 6 3 6 6 6 3 3 3 6 6 6 3 3 3 0 0 0 0 0 0 0 0 0 0 0 0
0 0 0 0 0 0 0 0 0 0 0 0 0 0 0 0 0 3 3 3 6 6 6 6 6 6 3 3 3 3 3 3 6 6 3 3 3 3 0 0 0 0 0 0 0 0 0 0 0
0 0 0 0 0 0 0 0 0 0 0 0 0 0 0 0 0 3 3 3 3 3 6 6 6 6 3 3 0 3 3 3 3 6 3 3 3 0 0 0 0 0 0 0 0 0 0 0 0
0 0 0 0 0 0 0 0 0 0 0 0 0 0 0 0 0 0 3 3 3 3 3 6 6 6 3 3 3 0 0 0 0 3 3 3 3 0 0 0 0 0 0 0 0 0 0 0 0
0 0 0 0 0 0 0 0 0 0 0 0 0 0 0 0 0 0 3 3 3 3 3 3 3 6 6 3 3 3 0 3 0 0 0 3 0 0 0 0 0 0 0 0 0 0 0 0 0
0 0 0 0 0 0 0 0 0 0 0 0 0 0 0 0 0 0 0 3 3 3 3 3 3 3 3 0 0 0 0 0 0 0 0 0 0 0 0 0 0 0 0 0 0 0 0 0 0
0 0 0 0 0 0 0 0 0 0 0 0 0 0 0 0 0 0 0 3 3 3 3 3 3 3 3 0 0 0 0 0 0 0 0 0 0 0 0 0 0 0 0 0 0 0 0 0 0
0 0 0 0 0 0 0 0 0 0 0 0 0 0 0 0 0 0 0 0 3 3 3 3 3 3 3 0 0 0 0 0 0 0 0 0 0 0 0 0 0 0 0 0 0 0 0 0 0
0 0 0 0 0 0 0 0 0 0 0 0 0 0 0 0 0 0 0 0 3 3 3 3 3 3 3 3 0 0 0 0 0 0 0 0 0 0 0 0 0 0 0 0 0 0 0 0 0
0 0 0 0 0 0 0 0 0 0 0 0 0 0 0 0 0 0 0 0 3 3 3 3 3 3 3 3 0 0 0 0 0 0 0 0 0 0 0 0 0 0 0 0 0 0 0 0 0
0 0 0 0 0 0 0 0 0 0 0 0 0 0 0 0 0 0 0 3 3 3 3 3 3 3 3 3 0 0 0 0 0 0 0 0 0 0 0 0 0 0 0 0 0 0 0 0 0
0 0 0 0 0 0 0 0 0 0 0 0 0 0 0 0 0 0 0 0 3 3 3 3 3 3 3 3 0 0 0 0 0 0 0 0 0 0 0 0 0 0 0 0 0 0 0 0 0
0 0 0 0 0 0 0 0 0 0 0 0 0 0 0 0 0 0 0 0 0 3 3 3 3 3 3 3 0 0 0 0 0 0 0 0 0 0 0 0 0 0 0 0 0 0 0 0 0
0 0 0 0 0 0 0 0 0 0 0 0 0 0 0 0 0 0 0 0 0 0 3 3 3 3 3 0 0 0 0 0 0 0 0 0 0 0 0 0 0 0 0 0 0 0 0 0 0

GEFSSGP_con_cape1000_246.txt.gz
Probability
0 0 0 0 0 0 0 0 0 0 0 0 0 0 0 0 0 0 6 13 10 16 42 48 52 55 52 52 52 45 48 48 45 42 29 29 29 29 26 23 26 19 16 16 13 13 16 16 13
0 0 0 0 0 0 0 0 0 0 0 0 0 0 0 3 3 6 13 13 10 19 42 42 55 55 52 52 48 45 45 45 42 29 29 29 29 29 26 26 19 19 16 16 16 13 13 13 13
0 0 0 0 0 0 0 0 0 0 0 0 0 0 3 3 3 10 13 19 10 23 42 45 55 55 55 52 45 45 45 45 32 32 32 29 29 26 29 26 19 13 13 13 13 10 6 6 6
0 0 0 0 0 0 0 0 0 0 0 0 0 0 0 3 3 10 19 19 23 29 42 45 55 55 55 48 45 42 42 39 32 32 32 29 26 23 26 23 19 13 10 6 6 6 6 6 6
0 0 0 0 0 0 0 0 0 0 0 0 0 3 3 3 6 16 19 19 23 35 39 45 55 55 52 48 42 42 42 35 29 29 29 26 26 26 23 16 16 13 6 6 6 6 6 6 0
0 0 0 0 0 0 0 0 0 0 0 0 0 3 3 3 19 23 26 23 32 42 42 45 52 52 52 48 42 42 39 39 35 32 32 29 29 26 23 19 19 16 6 6 10 3 3 3 0
0 0 0 0 0 0 0 0 0 0 0 0 0 3 3 3 19 23 26 35 39 35 39 42 45 45 52 45 39 39 39 39 35 32 29 29 29 23 23 19 19 13 10 6 6 3 0 0 0
0 0 0 0 0 0 0 0 0 0 0 0 0 3 3 3 10 23 29 32 39 39 39 42 35 35 32 32 32 35 32 32 32 29 23 19 16 13 16 16 13 10 3 3 3 0 0 0 0
0 0 0 0 0 0 0 0 0 0 0 0 0 0 3 0 13 29 32 32 32 35 32 26 29 29 29 23 23 23 26 23 19 13 10 10 3 3 3 3 10 10 6 3 0 0 0 0 0
0 0 0 0 0 0 0 0 0 0 0 0 3 3 3 6 19 26 32 32 32 29 23 29 23 19 13 16 16 13 13 13 3 3 0 0 0 0 0 0 0 0 0 0 0 0 0 0 0
0 0 0 0 0 0 0 0 0 0 0 0 3 3 10 10 23 26 29 32 29 26 23 23 23 23 13 10 10 6 3 3 0 0 0 0 0 0 0 0 0 0 0 0 0 0 0 0 0
0 0 0 0 0 0 0 0 0 0 0 0 0 3 6 10 13 16 23 23 19 16 13 13 16 13 10 6 3 3 3 3 0 0 0 0 0 0 0 0 0 0 0 0 0 0 0 0 0
0 0 0 0 0 0 0 0 0 0 0 0 0 3 6 10 10 13 13 16 16 13 10 10 13 6 6 3 3 3 3 3 3 0 0 0 0 0 0 0 0 0 0 0 0 0 0 0 0
0 0 0 0 0 0 0 0 0 0 0 0 0 0 0 6 10 10 10 10 10 6 10 6 3 3 3 0 0 3 3 3 3 3 0 0 0 0 0 0 0 0 0 0 0 0 0 0 0
0 0 0 0 0 0 0 0 0 0 0 0 0 0 0 0 3 6 6 6 6 6 6 3 3 3 3 0 0 0 0 0 3 3 0 0 0 0 0 0 0 0 0 0 0 0 0 0 0
0 0 0 0 0 0 0 0 0 0 0 0 0 0 0 0 0 6 6 6 6 6 6 6 3 3 3 0 0 0 0 0 0 0 3 0 0 0 0 0 0 0 0 0 0 0 0 0 0
0 0 0 0 0 0 0 0 0 0 0 0 0 0 0 0 0 3 3 6 6 6 6 6 3 3 3 0 0 0 0 0 0 0 0 0 0 0 0 0 0 0 0 0 0 0 0 0 0
0 0 0 0 0 0 0 0 0 0 0 0 0 0 0 0 0 0 0 0 3 3 3 6 0 3 0 0 0 0 0 0 0 0 0 0 0 0 0 0 0 0 0 0 0 0 0 0 0
0 0 0 0 0 0 0 0 0 0 0 0 0 0 0 0 0 0 0 0 0 3 3 3 0 0 0 0 0 0 0 0 0 0 0 0 0 0 0 0 0 0 0 0 0 0 0 0 0
0 0 0 0 0 0 0 0 0 0 0 0 0 0 0 0 0 0 0 0 0 0 0 0 0 0 0 0 0 0 0 0 0 0 0 0 0 0 0 0 0 0 0 0 0 0 0 0 0
0 0 0 0 0 0 0 0 0 0 0 0 0 0 0 0 0 0 0 0 0 0 0 0 0 0 0 0 0 0 0 0 0 0 0 0 0 0 0 0 0 0 0 0 0 0 0 0 0
0 0 0 0 0 0 0 0 0 0 0 0 0 0 0 0 0 0 0 0 0 0 0 0 0 0 0 0 0 0 0 0 0 0 0 0 0 0 0 0 0 0 0 0 0 0 0 0 0
0 0 0 0 0 0 0 0 0 0 0 0 0 0 0 0 0 0 0 0 0 0 3 3 0 0 0 0 0 0 0 0 0 0 0 0 0 0 0 0 0 0 0 0 0 0 0 0 0
0 0 0 0 0 0 0 0 0 0 0 0 0 0 0 0 0 0 0 0 0 3 3 3 0 0 0 0 0 0 0 0 0 0 0 0 0 0 0 0 0 0 0 0 0 0 0 0 0
0 0 0 0 0 0 0 0 0 0 0 0 0 0 0 0 0 0 0 0 0 0 0 3 0 0 0 0 0 0 0 0 0 0 0 0 0 0 0 0 0 0 0 0 0 0 0 0 0
0 0 0 0 0 0 0 0 0 0 0 0 0 0 0 0 0 0 0 0 0 0 0 0 0 3 3 0 0 0 0 0 0 0 0 0 0 0 0 0 0 0 0 0 0 0 0 0 0
0 0 0 0 0 0 0 0 0 0 0 0 0 0 0 0 0 0 0 0 0 0 0 0 0 3 3 3 0 0 0 0 0 0 0 0 0 0 0 0 0 0 0 0 0 0 0 0 0
0 0 0 0 0 0 0 0 0 0 0 0 0 0 0 0 0 0 0 0 0 0 0 0 0 0 3 3 0 0 0 0 0 0 0 0 0 0 0 0 0 0 0 0 0 0 0 0 0
0 0 0 0 0 0 0 0 0 0 0 0 0 0 0 0 0 0 0 0 0 0 0 0 0 0 0 0 0 0 0 0 0 0 0 0 0 0 0 0 0 0 0 0 0 0 0 0 0
0 0 0 0 0 0 0 0 0 0 0 0 0 0 0 0 0 0 0 0 0 0 0 0 0 0 0 0 0 0 0 0 0 0 0 0 0 0 0 0 0 0 0 0 0 0 0 0 0

GEFSSGP_con_cape1000_252.txt.gz
Probability
0 0 0 0 0 0 0 0 0 0 0 0 0 0 0 0 0 0 0 0 13 13 35 52 61 61 61 58 58 55 45 45 45 42 39 32 29 29 29 23 19 23 23 26 26 19 16 13 10
0 0 0 0 0 0 0 0 0 0 0 0 0 0 0 3 3 3 6 10 10 26 39 42 58 61 61 58 55 52 48 45 42 35 35 32 32 32 23 23 19 19 19 19 16 13 13 13 10
0 0 0 0 0 0 0 0 0 0 0 0 0 0 3 3 6 6 10 10 13 29 39 45 55 52 58 52 52 48 42 42 42 39 39 35 39 32 19 19 16 16 13 13 10 10 6 10 10
0 0 0 0 0 0 0 0 0 0 0 0 0 0 3 3 6 6 6 10 19 29 39 45 52 52 52 48 48 45 39 39 35 35 35 35 39 29 19 13 16 13 13 10 10 10 6 3 3
0 0 0 0 0 0 0 0 0 0 0 0 0 0 3 3 6 6 10 13 23 32 39 45 55 48 48 48 45 45 42 35 35 35 35 39 32 26 19 16 13 13 13 6 3 3 6 6 3
0 0 0 0 0 0 0 0 0 0 0 0 0 3 3 6 6 10 10 19 29 35 42 45 52 52 48 48 48 48 42 39 32 32 32 29 26 19 16 13 13 10 3 3 3 3 0 3 0
0 0 0 0 0 0 0 0 0 0 0 0 0 3 6 10 10 13 16 23 35 42 45 42 42 42 48 48 45 45 35 35 35 35 35 32 26 19 19 19 10 6 3 3 3 0 0 0 0
0 0 0 0 0 0 0 0 0 0 0 0 0 3 6 10 19 16 23 29 42 42 42 42 39 42 42 39 35 35 35 35 39 35 26 23 16 16 13 6 6 3 3 3 3 0 0 0 0
0 0 0 0 0 0 0 0 0 0 0 0 0 3 6 13 26 29 26 29 32 35 39 35 39 35 35 35 32 32 32 29 26 19 10 3 3 3 3 3 3 3 3 3 3 0 0 0 0
0 0 0 0 0 0 0 0 0 0 0 0 0 6 6 23 26 29 26 23 23 26 35 29 32 26 26 29 19 13 16 10 6 3 3 3 0 0 0 0 0 0 0 0 0 0 0 0 0
0 0 0 0 0 0 0 0 0 0 0 0 0 3 23 26 26 23 26 19 23 23 26 23 23 16 23 16 10 10 6 3 3 3 3 3 0 0 0 0 0 0 0 0 0 0 0 0 0
0 0 0 0 0 0 0 0 0 0 0 0 0 3 23 26 29 23 23 23 16 19 19 16 16 16 13 10 10 6 3 0 0 0 0 0 0 0 0 0 0 0 0 0 0 0 0 0 0
0 0 0 0 0 0 0 0 0 0 0 0 0 3 19 26 29 23 16 16 16 16 16 16 16 13 6 6 6 6 0 0 0 0 0 0 0 0 0 0 0 0 0 0 0 0 0 0 0
0 0 0 0 0 0 0 0 0 0 0 0 3 10 10 16 19 19 19 19 19 16 16 16 13 6 3 3 3 0 0 0 0 0 0 0 0 0 0 0 0 0 0 0 0 0 0 0 0
0 0 0 0 0 0 0 0 0 0 0 0 0 0 10 10 13 16 16 16 19 13 16 16 10 3 3 0 0 0 0 0 0 0 0 0 0 0 0 0 0 0 0 0 0 0 0 0 0
0 0 0 0 0 0 0 0 0 0 0 0 0 0 3 10 10 10 10 13 13 13 13 10 6 6 0 0 0 0 0 0 0 0 0 0 0 0 0 0 0 0 0 0 0 0 0 0 0
0 0 0 0 0 0 0 0 0 0 0 0 0 0 0 6 6 6 6 6 10 10 3 6 3 3 0 0 0 0 0 0 0 0 0 0 0 0 0 0 0 0 0 0 0 0 0 0 0
0 0 0 0 0 0 0 0 0 0 0 0 0 0 0 0 3 3 3 3 6 3 6 6 0 0 0 0 0 0 0 0 0 0 0 0 0 0 0 0 0 0 0 0 0 0 0 0 0
0 0 0 0 0 0 0 0 0 0 0 0 0 0 0 0 3 3 3 3 3 6 3 3 3 0 0 0 0 0 0 0 0 0 0 0 0 0 0 0 0 0 0 0 0 0 0 0 0
0 0 0 0 0 0 0 0 0 0 0 0 0 0 0 0 3 3 3 3 3 3 6 6 3 3 0 0 0 0 0 0 0 0 0 0 0 0 0 0 0 0 0 0 0 0 0 0 0
0 0 0 0 0 0 0 0 0 0 0 0 0 0 0 0 0 3 3 3 3 3 3 3 3 3 3 0 0 0 0 0 0 0 0 0 0 0 0 0 0 0 0 0 0 0 0 0 0
0 0 0 0 0 0 0 0 0 0 0 0 0 0 0 0 0 3 3 3 3 3 3 3 3 3 3 0 0 0 0 0 0 0 0 0 0 0 0 0 0 0 0 0 0 0 0 0 0
0 0 0 0 0 0 0 0 0 0 0 0 0 0 0 0 0 0 3 3 3 3 3 3 3 3 0 0 0 0 0 0 0 0 0 0 0 0 0 0 0 0 0 0 0 0 0 0 0
0 0 0 0 0 0 0 0 0 0 0 0 0 0 0 0 0 0 3 3 3 3 3 3 3 0 0 0 0 0 0 0 0 0 0 0 0 0 0 0 0 0 0 0 0 0 0 0 0
0 0 0 0 0 0 0 0 0 0 0 0 0 0 0 0 0 0 3 3 3 3 3 0 0 0 0 0 0 0 0 0 0 0 0 0 0 0 0 0 0 0 0 0 0 0 0 0 0
0 0 0 0 0 0 0 0 0 0 0 0 0 0 0 0 0 0 3 3 3 0 0 0 0 0 0 0 0 0 0 0 0 0 0 0 0 0 0 0 0 0 0 0 0 0 0 0 0
0 0 0 0 0 0 0 0 0 0 0 0 0 0 0 0 0 0 3 3 3 0 0 0 0 0 0 0 0 0 0 0 0 0 0 0 0 0 0 0 0 0 0 0 0 0 0 0 0
0 0 0 0 0 0 0 0 0 0 0 0 0 0 0 0 0 0 3 3 0 0 0 0 0 0 0 0 0 0 0 0 0 0 0 0 0 0 0 0 0 0 0 0 0 0 0 0 0
0 0 0 0 0 0 0 0 0 0 0 0 0 0 0 0 0 0 3 3 0 0 0 0 0 0 0 0 0 0 0 0 0 0 0 0 0 0 0 0 0 0 0 0 0 0 0 0 0
0 0 0 0 0 0 0 0 0 0 0 0 0 0 0 0 0 0 0 0 0 0 0 0 0 0 0 0 0 0 0 0 0 0 0 0 0 0 0 0 0 0 0 0 0 0 0 0 0

GEFSSGP_con_cape1000_258.txt.gz
Probability
0 0 0 0 0 0 0 0 0 0 0 0 0 0 0 0 0 0 13 23 29 42 58 61 74 58 58 58 61 61 55 55 48 42 39 32 32 35 32 29 29 29 29 26 26 23 23 26 23
0 0 0 0 0 0 0 0 0 0 0 0 0 0 0 0 3 6 19 26 32 42 55 52 58 61 55 55 55 55 55 52 45 32 32 32 32 32 32 29 29 26 29 26 26 23 10 13 16
0 0 0 0 0 0 0 0 0 0 0 0 0 3 3 3 3 13 16 26 35 48 45 48 58 55 55 55 52 52 48 45 42 39 32 35 32 32 32 26 26 26 26 26 19 13 10 10 10
0 0 0 0 0 0 0 0 0 0 0 0 0 3 3 6 6 13 19 26 42 42 45 55 61 58 55 55 48 45 42 42 39 39 45 35 32 26 19 23 23 23 16 16 13 10 10 6 6
0 0 0 0 0 0 0 0 0 0 0 0 0 3 6 6 13 16 19 32 35 35 42 52 61 58 55 52 52 45 45 42 39 42 45 35 26 23 19 19 19 16 13 10 13 6 3 3 3
0 0 0 0 0 0 0 0 0 0 0 0 0 3 6 10 19 16 23 39 35 32 39 48 58 58 55 52 52 48 48 45 45 45 39 32 26 19 19 23 13 10 10 13 10 6 3 3 3
0 0 0 0 0 0 0 0 0 0 0 0 0 3 6 13 19 23 29 32 35 35 45 45 52 48 52 52 48 48 45 45 42 42 42 32 32 23 23 13 13 10 13 10 6 3 0 0 0
0 0 0 0 0 0 0 0 0 0 0 0 0 6 6 13 16 23 29 32 32 35 42 45 42 42 48 45 45 45 35 35 32 32 26 19 19 19 16 13 13 10 3 0 3 0 0 3 0
0 0 0 0 0 0 0 0 0 0 0 0 0 6 6 10 23 19 26 29 29 35 35 39 35 39 39 42 29 29 29 26 26 29 10 10 16 16 10 3 3 3 3 0 0 0 0 0 0
0 0 0 0 0 0 0 0 0 0 0 0 3 3 6 13 13 16 19 26 29 35 39 32 32 29 35 29 29 32 29 26 29 29 13 16 13 10 3 0 0 3 0 0 0 0 0 0 0
0 0 0 0 0 0 0 0 0 0 0 0 3 3 10 13 13 10 19 19 26 32 32 32 29 26 26 29 29 23 23 23 19 19 16 13 3 3 3 0 0 0 0 0 0 0 0 0 0
0 0 0 0 0 0 0 0 0 0 0 0 3 3 10 10 13 10 10 16 26 29 29 32 26 26 23 23 19 23 23 23 13 13 13 6 3 3 0 0 0 3 0 0 0 0 0 0 0
0 0 0 0 0 0 0 0 0 0 0 0 3 3 10 10 13 10 10 10 26 29 29 29 26 23 23 19 16 16 19 16 16 13 6 6 6 0 0 0 0 0 0 0 0 0 0 0 0
0 0 0 0 0 0 0 0 0 0 0 0 3 3 10 6 13 16 10 10 23 26 29 26 23 23 23 19 19 10 10 13 6 6 6 6 3 0 0 0 0 0 0 0 0 0 0 0 0
0 0 0 0 0 0 0 0 0 0 0 3 3 3 6 6 10 10 6 13 19 23 23 19 19 23 19 13 16 16 10 10 3 3 3 3 3 3 0 0 0 0 0 0 0 0 0 0 0
0 0 0 0 0 0 0 0 0 0 3 3 3 3 3 10 3 10 6 3 10 16 19 13 16 19 19 16 10 6 3 3 3 0 0 0 3 3 0 0 0 0 0 0 0 0 0 0 0
0 0 0 0 0 0 0 0 0 0 0 0 0 0 3 3 3 3 3 6 6 13 13 13 16 16 16 13 10 6 0 0 0 0 0 0 0 0 0 0 0 0 0 0 0 0 0 0 0
0 0 0 0 0 0 0 0 0 0 0 0 0 0 3 3 3 3 0 0 0 6 13 13 10 10 10 10 0 3 3 0 0 0 0 0 0 0 0 0 0 0 0 0 0 0 0 0 0
0 0 0 0 0 0 0 0 0 0 0 0 0 0 3 3 3 3 0 0 0 0 6 6 3 10 6 6 3 3 3 0 0 0 0 0 0 0 0 0 0 0 0 0 0 0 0 0 0
0 0 0 0 0 0 0 0 0 0 0 0 0 0 3 3 3 0 0 0 0 0 3 3 0 0 0 3 3 3 3 0 0 0 0 0 0 0 0 0 0 0 0 0 0 0 0 0 0
0 0 0 0 0 0 0 0 0 0 0 0 0 0 0 3 0 0 0 0 0 0 0 0 0 0 0 0 0 0 0 0 0 0 0 0 0 0 0 0 0 0 0 0 0 0 0 0 0
0 0 0 0 0 0 0 0 0 0 0 0 0 0 3 3 0 0 0 0 0 0 0 0 3 0 0 0 0 0 0 0 0 0 0 0 0 0 0 0 0 0 0 0 0 0 0 0 0
0 0 0 0 0 0 0 0 0 0 0 0 0 0 0 3 0 0 0 0 0 0 0 0 3 0 0 0 0 0 0 0 0 0 0 0 0 0 0 0 0 0 0 0 0 0 0 0 0
0 0 0 0 0 0 0 0 0 0 0 0 0 0 0 0 0 0 0 0 0 0 0 3 3 0 0 0 0 0 0 0 0 0 0 0 0 0 0 0 0 0 0 0 0 0 0 0 0
0 0 0 0 0 0 0 0 0 0 0 0 0 0 0 0 0 0 0 0 0 0 0 3 3 0 0 0 0 0 0 0 0 0 0 0 0 0 0 0 0 0 0 0 0 0 0 0 0
0 0 0 0 0 0 0 0 0 0 0 0 0 0 0 0 0 0 0 0 0 0 0 3 3 3 0 0 3 3 3 0 0 0 0 0 0 0 0 0 0 0 0 0 0 0 0 0 0
0 0 0 0 0 0 0 0 0 0 0 0 0 0 0 0 0 0 0 0 0 0 0 3 3 3 0 0 3 3 3 3 0 0 0 0 0 0 0 0 0 0 0 0 0 0 0 0 0
0 0 0 0 0 0 0 0 0 0 0 0 0 0 0 0 0 0 0 0 0 0 0 3 3 3 3 0 0 0 3 3 3 0 0 0 0 0 0 0 0 0 0 0 0 0 0 0 0
0 0 0 0 0 0 0 0 0 0 0 0 0 0 0 0 0 0 0 0 0 0 0 3 3 3 3 3 3 0 3 3 3 3 0 0 0 0 0 0 0 0 0 0 0 0 0 0 0
0 0 0 0 0 0 0 0 0 0 0 0 0 0 0 0 0 0 0 0 0 0 0 3 3 3 3 3 3 0 0 3 3 3 0 0 0 0 0 0 0 0 0 0 0 0 0 0 0

GEFSSGP_con_cape1000_264.txt.gz
Probability
0 0 0 0 0 0 0 0 0 0 0 0 0 0 0 0 0 19 29 32 55 52 55 71 74 68 61 58 55 55 55 52 48 45 45 42 42 39 35 32 32 29 26 23 23 23 23 19 19
0 0 0 0 0 0 0 0 0 0 0 0 0 0 0 6 6 13 32 35 55 48 52 52 71 65 61 58 52 48 52 48 39 39 42 42 35 35 35 32 32 26 26 19 23 23 26 13 13
0 0 0 0 0 0 0 0 0 0 0 0 0 0 0 6 10 19 29 35 52 45 39 55 71 65 65 58 52 48 42 42 39 39 39 39 35 32 29 29 29 23 19 19 23 16 16 19 16
0 0 0 0 0 0 0 0 0 0 0 0 0 0 6 6 16 26 35 35 48 42 35 55 65 65 58 55 45 45 42 39 39 39 42 42 29 29 26 26 19 19 19 16 16 10 10 10 10
0 0 0 0 0 0 0 0 0 0 0 0 0 6 10 13 23 29 35 39 42 42 39 45 58 55 55 48 45 45 42 45 52 45 39 32 32 29 23 23 19 16 19 13 10 10 10 10 6
0 0 0 0 0 0 0 0 0 0 0 0 0 6 6 19 23 26 26 35 35 39 39 45 58 55 48 52 45 48 48 45 45 45 32 29 29 29 23 19 16 13 16 13 6 6 6 6 6
0 0 0 0 0 0 0 0 0 0 0 0 0 6 6 16 16 19 29 35 26 32 26 23 35 48 52 45 48 48 48 48 48 39 35 32 32 32 19 16 13 16 13 13 6 6 6 6 6
0 0 0 0 0 0 0 0 0 0 0 0 0 6 10 16 16 19 23 26 26 29 26 26 23 26 29 32 42 45 45 39 42 35 23 23 19 19 13 10 10 16 13 10 6 6 6 3 0
0 0 0 0 0 0 0 0 0 0 0 3 3 3 10 16 16 26 19 19 29 29 26 23 23 19 23 26 23 23 26 23 23 13 6 6 10 10 10 10 6 6 10 10 6 6 3 0 0
0 0 0 0 0 0 0 0 0 0 3 3 3 3 13 16 19 19 23 23 26 32 26 23 26 16 16 19 16 19 16 6 10 10 6 6 6 6 6 6 6 6 6 6 3 0 0 0 0
0 0 0 0 0 0 0 0 0 0 0 3 3 3 13 19 19 16 19 19 19 29 32 26 23 19 10 13 13 10 10 10 10 6 6 6 6 3 3 3 0 0 0 0 0 0 0 0 0
0 0 0 0 0 0 0 0 0 0 0 0 3 3 10 13 19 10 16 13 13 26 29 23 26 16 13 10 6 13 6 6 3 3 6 6 6 3 0 0 0 0 0 0 0 0 0 0 0
0 0 0 0 0 0 0 0 0 0 0 0 3 3 6 6 10 6 6 13 16 19 26 29 23 10 13 6 6 13 6 3 3 3 3 3 3 0 0 0 0 0 0 0 0 0 0 0 0
0 0 0 0 0 0 0 0 0 0 3 3 3 0 3 3 0 0 6 13 13 16 16 23 19 13 13 10 6 10 6 3 3 3 3 3 0 0 0 0 0 0 0 0 0 0 0 0 0
0 0 0 0 0 0 0 0 0 0 0 0 0 6 0 0 0 0 0 3 16 13 13 16 10 6 10 6 3 6 6 3 3 3 3 0 0 0 0 0 0 0 0 0 0 0 0 0 0
0 0 0 0 0 0 0 0 0 0 0 0 0 3 0 0 0 0 0 0 6 6 10 0 6 3 3 3 3 3 3 3 3 3 3 0 0 0 0 0 0 0 0 0 0 0 0 0 0
0 0 0 0 0 0 0 0 0 0 0 0 0 0 0 0 0 0 0 0 0 0 0 0 0 0 0 0 3 3 3 3 3 3 0 0 0 0 0 0 0 0 0 0 0 0 0 0 0
0 0 0 0 0 0 0 0 0 0 0 0 0 0 0 0 0 0 0 0 0 0 0 0 0 0 0 0 3 3 6 3 0 0 0 0 0 0 0 0 0 0 0 0 0 0 0 0 0
0 0 0 0 0 0 0 0 0 0 0 0 0 0 0 0 0 0 0 0 0 0 0 0 0 0 0 0 0 0 0 0 0 0 0 0 0 0 0 0 0 0 0 0 0 0 0 0 0
0 0 0 0 0 0 0 0 0 0 0 0 0 0 0 0 0 0 0 0 0 0 0 0 0 0 0 0 0 0 0 0 0 0 0 0 0 0 0 0 0 0 0 0 0 0 0 0 0
0 0 0 0 0 0 0 0 0 0 0 0 0 0 0 0 0 0 0 0 0 0 0 0 0 0 0 0 0 0 0 0 0 0 0 0 0 0 0 0 0 0 0 0 0 0 0 0 0
0 0 0 0 0 0 0 0 0 0 0 0 0 0 0 0 0 0 0 0 0 0 0 0 0 0 0 0 0 0 0 0 0 0 0 0 0 0 0 0 0 0 0 0 0 0 0 0 0
0 0 0 0 0 0 0 0 0 0 0 0 0 0 0 0 0 0 0 0 0 0 0 0 0 0 0 0 0 0 0 0 0 0 0 0 0 0 0 0 0 0 0 0 0 0 0 0 0
0 0 0 0 0 0 0 0 0 0 0 0 0 0 0 0 0 3 0 0 0 0 0 0 0 0 0 0 0 0 0 0 0 0 0 0 0 0 0 0 0 0 0 0 0 0 0 0 0
0 0 0 0 0 0 0 0 0 0 0 0 0 0 0 0 0 0 0 0 0 0 0 0 0 0 0 0 0 0 0 0 0 0 0 0 0 0 0 0 0 0 0 0 0 0 0 0 0
0 0 0 0 0 0 0 0 0 0 0 0 0 0 0 0 0 0 0 0 0 0 0 0 0 0 0 0 0 0 0 0 0 0 0 0 0 0 0 0 0 0 0 0 0 0 0 0 0
0 0 0 0 0 0 0 0 0 0 0 0 0 0 0 0 0 0 0 0 0 0 0 0 0 0 0 0 0 0 0 0 0 0 0 0 0 0 0 0 0 0 0 0 0 0 0 0 0
0 0 0 0 0 0 0 0 0 0 0 0 0 0 0 0 0 0 0 0 0 0 0 0 0 0 0 0 0 0 0 0 0 0 0 0 0 0 0 0 0 0 0 0 0 0 0 0 0
0 0 0 0 0 0 0 0 0 0 0 0 0 0 0 0 0 0 0 0 0 0 0 0 0 0 0 0 0 0 0 0 0 0 0 0 0 0 0 0 0 0 0 0 0 0 0 0 0
0 0 0 0 0 0 0 0 0 0 0 0 0 0 0 0 0 0 0 0 0 0 0 0 0 0 0 0 0 0 0 0 0 0 0 0 0 0 0 0 0 0 0 0 0 0 0 0 0